EW7771 Weather Reports


Display with metric or nautical units.
time (UTC)temp
F
wind
direction
speed
MPH
gust
MPH
rain 1hr
in
rain 24hr
in
rain mn
in
humidity
%
barometer
mb
20260510182743 55 146 0.0 0.0 0.00 0.00 0.00 83 1017.6
20260510182241 55 160 0.0 0.0 0.00 0.00 0.00 84 1017.6
20260510181740 55 169 0.0 3.0 0.00 0.00 0.00 84 1017.5
20260510181241 55 190 0.0 5.0 0.00 0.00 0.00 84 1017.4
20260510180741 55 160 0.0 10.0 0.00 0.00 0.00 83 1017.4
20260510180242 55 163 0.0 10.0 0.00 0.00 0.00 84 1017.3
20260510175740 55 136 0.0 2.0 0.00 0.00 0.00 84 1017.3
20260510175501 55 102 0.0 1.0 0.00 0.00 0.00 85 1017.3
20260510174739 55 114 0.0 1.0 0.00 0.00 0.00 84 1017.3
20260510174238 55 112 0.0 1.0 0.00 0.00 0.00 84 1017.3
20260510173740 55 215 0.0 1.0 0.00 0.00 0.00 85 1017.0
20260510173239 55 148 0.0 1.0 0.00 0.00 0.00 86 1016.9
20260510172739 55 146 0.0 1.0 0.00 0.00 0.00 86 1016.9
20260510172241 55 134 0.0 2.0 0.00 0.00 0.00 86 1016.8
20260510171739 55 202 0.0 5.0 0.00 0.00 0.00 86 1016.9
20260510171240 55 155 0.0 5.0 0.00 0.00 0.00 86 1016.9
20260510170740 55 143 0.0 1.0 0.00 0.00 0.00 86 1016.8
20260510170239 56 171 0.0 4.0 0.00 0.00 0.00 86 1016.8
20260510170228 56 162 0.0 4.0 0.00 0.00 0.00 87 1016.6
20260510165730 55 130 0.0 5.0 0.00 0.00 0.00 86 1016.7
20260510165006 55 172 0.0 5.0 0.00 0.00 0.00 86 1016.5
20260510164240 55 145 0.0 0.0 0.00 0.00 0.00 87 1016.7
20260510163740 55 156 0.0 1.0 0.00 0.00 0.00 87 1016.5
20260510163239 55 157 0.0 1.0 0.00 0.00 0.00 88 1016.5
20260510162747 55 355 0.0 0.0 0.00 0.00 0.00 89 1016.4
20260510162459 55 169 0.0 0.0 0.00 0.00 0.00 90 1016.4
20260510161735 55 143 0.0 0.0 0.00 0.00 0.00 91 1016.1
20260510161231 54 61 0.0 0.0 0.00 0.00 0.00 91 1015.9
20260510160724 54 61 0.0 0.0 0.00 0.00 0.00 91 1015.7
20260510160214 54 61 0.0 0.0 0.00 0.00 0.00 91 1015.7
20260510155713 53 19 0.0 0.0 0.00 0.00 0.00 94 1016.0
20260510155205 53 14 0.0 0.0 0.00 0.00 0.00 94 1016.0
20260510154700 53 14 0.0 0.0 0.00 0.00 0.00 95 1015.7
20260510154153 52 14 0.0 0.0 0.00 0.00 0.00 95 1015.8
20260510153645 52 14 0.0 0.0 0.00 0.00 0.00 95 1015.7
20260510153141 52 311 0.0 2.0 0.00 0.00 0.00 96 1015.9
20260510152636 51 311 0.0 2.0 0.00 0.00 0.00 96 1016.1
20260510152129 51 311 0.0 0.0 0.00 0.00 0.00 96 1016.1
20260510151852 51 311 0.0 0.0 0.00 0.00 0.00 96 1016.2
20260510151118 51 58 0.0 0.0 0.00 0.00 0.00 96 1016.2
20260510150611 51 37 0.0 0.0 0.00 0.00 0.00 96 1016.2
20260510150105 51 28 0.0 0.0 0.00 0.00 0.00 96 1016.1
20260510145602 50 42 0.0 2.0 0.00 0.00 0.00 96 1016.2
20260510145054 50 42 0.0 2.0 0.00 0.00 0.00 96 1015.8
20260510145034 50 217 0.0 0.0 0.00 0.00 0.00 96 1015.6
20260510144041 50 217 0.0 0.0 0.00 0.00 0.00 96 1015.7
20260510143540 50 217 0.0 0.0 0.00 0.00 0.00 96 1015.7
20260510143030 49 217 0.0 0.0 0.00 0.00 0.00 96 1015.7
20260510142743 49 217 0.0 0.0 0.00 0.00 0.00 96 1015.7
20260510142013 49 266 0.0 0.0 0.00 0.00 0.00 96 1015.5
20260510141513 49 266 0.0 0.0 0.00 0.00 0.00 96 1015.6
20260510141006 49 266 0.0 0.0 0.00 0.00 0.00 96 1015.7
20260510140723 49 266 0.0 0.0 0.00 0.00 0.00 96 1015.8
20260510135950 49 266 0.0 1.0 0.00 0.00 0.00 96 1015.8
20260510135447 49 266 0.0 1.0 0.00 0.00 0.00 96 1016.1
20260510134943 48 196 0.0 0.0 0.00 0.00 0.00 96 1016.4
20260510134435 48 196 0.0 0.0 0.00 0.00 0.00 96 1016.4
20260510133929 48 196 0.0 0.0 0.00 0.00 0.00 96 1016.4
20260510133423 48 196 0.0 0.0 0.00 0.00 0.00 96 1016.4
20260510132919 48 196 0.0 0.0 0.00 0.00 0.00 96 1016.4
20260510132850 48 196 0.0 1.0 0.00 0.00 0.00 96 1016.4
20260510131905 48 196 0.0 1.0 0.00 0.00 0.00 96 1016.3
20260510131359 47 196 0.0 2.0 0.00 0.00 0.00 96 1016.2
20260510130856 47 196 0.0 2.0 0.00 0.00 0.00 96 1016.2
20260510130347 47 196 0.0 1.0 0.00 0.00 0.00 96 1016.2
20260510125841 47 196 0.0 0.0 0.00 0.00 0.00 96 1016.1
20260510125335 47 196 0.0 0.0 0.00 0.00 0.00 95 1016.3
20260510124829 47 196 0.0 0.0 0.00 0.00 0.00 95 1016.2
20260510124320 47 196 0.0 0.0 0.00 0.00 0.00 95 1016.1
20260510123817 47 196 0.0 0.0 0.00 0.00 0.00 95 1016.1
20260510123311 47 196 0.0 0.0 0.00 0.00 0.00 95 1016.2
20260510122808 47 196 0.0 0.0 0.00 0.00 0.00 95 1016.2
20260510121753 47 196 0.0 0.0 0.00 0.00 0.00 95 1016.0
20260510121247 47 196 0.0 0.0 0.00 0.00 0.00 95 1015.9
20260510120743 47 196 0.0 0.0 0.00 0.00 0.00 95 1015.9
20260510120236 47 196 0.0 0.0 0.00 0.00 0.00 95 1016.0
20260510115954 47 196 0.0 0.0 0.00 0.00 0.00 95 1016.2
20260510115233 47 196 0.0 0.0 0.00 0.00 0.00 95 1016.4
20260510114731 47 196 0.0 0.0 0.00 0.00 0.00 95 1016.3
20260510114229 47 196 0.0 0.0 0.00 0.00 0.00 95 1016.2
20260510113726 47 196 0.0 0.0 0.00 0.00 0.00 95 1016.2
20260510113226 48 196 0.0 0.0 0.00 0.00 0.00 95 1016.1
20260510112724 48 196 0.0 0.0 0.00 0.00 0.00 95 1016.0
20260510112234 48 196 0.0 0.0 0.00 0.00 0.00 95 1015.8
20260510112224 48 196 0.0 0.0 0.00 0.00 0.00 95 1015.9
20260510111221 48 196 0.0 0.0 0.00 0.00 0.00 94 1015.9
20260510110722 48 196 0.0 0.0 0.00 0.00 0.00 95 1015.9
20260510110224 48 196 0.0 0.0 0.00 0.00 0.00 95 1015.7
20260510105945 48 196 0.0 0.0 0.00 0.00 0.00 94 1015.7
20260510105822 48 196 0.0 0.0 0.00 0.00 0.00 94 1015.7
20260510104719 48 196 0.0 0.0 0.00 0.00 0.00 94 1015.8
20260510104217 48 196 0.0 0.0 0.00 0.00 0.00 94 1015.8
20260510103718 48 196 0.0 0.0 0.00 0.00 0.00 94 1015.6
20260510103218 48 196 0.0 0.0 0.00 0.00 0.00 94 1015.5
20260510102719 48 196 0.0 0.0 0.00 0.00 0.00 94 1015.4
20260510102455 49 196 0.0 0.0 0.00 0.00 0.00 94 1015.3
20260510101726 49 196 0.0 0.0 0.00 0.00 0.00 94 1015.2
20260510101225 49 196 0.0 0.0 0.00 0.00 0.00 94 1015.3
20260510100727 49 196 0.0 0.0 0.00 0.00 0.00 94 1015.1
20260510100223 49 196 0.0 0.0 0.00 0.00 0.00 94 1015.1
20260510095722 49 196 0.0 0.0 0.00 0.00 0.00 94 1015.0
20260510095445 49 196 0.0 0.0 0.00 0.00 0.00 94 1015.0
20260510095201 49 196 0.0 0.0 0.00 0.00 0.00 94 1014.9
20260510094217 49 196 0.0 0.0 0.00 0.00 0.00 94 1014.9
20260510093715 49 196 0.0 0.0 0.00 0.00 0.00 94 1014.8
20260510093215 49 196 0.0 0.0 0.00 0.00 0.00 94 1014.7
20260510092711 49 196 0.0 0.0 0.00 0.00 0.00 95 1014.7
20260510092211 49 196 0.0 0.0 0.00 0.00 0.00 95 1014.7
20260510091713 50 196 0.0 4.0 0.00 0.00 0.00 95 1014.7
20260510091213 49 196 0.0 4.0 0.00 0.00 0.00 95 1014.7
20260510090710 49 148 0.0 0.0 0.00 0.00 0.00 94 1014.8
20260510090433 49 148 0.0 0.0 0.00 0.00 0.00 94 1014.8
20260510085709 49 148 0.0 0.0 0.00 0.00 0.00 94 1014.8
20260510085201 50 148 0.0 0.0 0.00 0.00 0.00 94 1014.7
20260510084657 50 148 0.0 0.0 0.00 0.00 0.00 94 1014.7
20260510084152 50 148 0.0 0.0 0.00 0.00 0.00 94 1014.8
20260510083644 50 148 0.0 0.0 0.00 0.00 0.00 94 1014.9
20260510083138 50 148 0.0 0.0 0.00 0.00 0.00 94 1014.9
20260510082632 50 148 0.0 0.0 0.00 0.00 0.00 94 1015.0
20260510082128 50 148 0.0 0.0 0.00 0.00 0.00 93 1015.2
20260510081619 50 148 0.0 0.0 0.00 0.00 0.00 93 1015.2
20260510081114 50 148 0.0 0.0 0.00 0.00 0.00 93 1015.1
20260510080609 50 148 0.0 0.0 0.00 0.00 0.00 93 1015.1
20260510075557 51 148 0.0 0.0 0.00 0.00 0.00 92 1015.3
20260510075051 51 148 0.0 0.0 0.00 0.00 0.00 92 1015.3
20260510074545 51 148 0.0 0.0 0.00 0.00 0.00 92 1015.3
20260510074038 51 148 0.0 0.0 0.00 0.00 0.00 92 1015.4
20260510073532 51 148 0.0 0.0 0.00 0.00 0.00 91 1015.4
20260510073027 51 148 0.0 0.0 0.00 0.00 0.00 91 1015.3
20260510072522 51 148 0.0 0.0 0.00 0.00 0.00 91 1015.2
20260510072016 51 148 0.0 0.0 0.00 0.00 0.00 91 1015.3
20260510071511 52 148 0.0 0.0 0.00 0.00 0.00 91 1015.2
20260510071004 52 148 0.0 0.0 0.00 0.00 0.00 91 1015.1
20260510070459 52 148 0.0 0.0 0.00 0.00 0.00 91 1015.1
20260510065952 52 148 0.0 0.0 0.00 0.00 0.00 91 1015.2
20260510065447 52 148 0.0 0.0 0.00 0.00 0.00 90 1015.2
20260510064940 52 148 0.0 0.0 0.00 0.00 0.00 91 1015.1
20260510064435 53 148 0.0 0.0 0.00 0.00 0.00 90 1015.1
20260510063928 53 148 0.0 0.0 0.00 0.00 0.00 90 1015.1
20260510063423 53 148 0.0 0.0 0.00 0.00 0.00 90 1015.1
20260510062916 53 148 0.0 0.0 0.00 0.00 0.00 89 1015.1
20260510062633 53 148 0.0 0.0 0.00 0.00 0.00 89 1015.0
20260510061904 53 148 0.0 0.0 0.00 0.00 0.00 89 1014.9
20260510061359 53 148 0.0 0.0 0.00 0.00 0.00 88 1014.9
20260510061134 54 148 0.0 0.0 0.00 0.00 0.00 89 1014.9
20260510060346 54 148 0.0 0.0 0.00 0.00 0.00 88 1014.9
20260510055840 54 148 0.0 0.0 0.00 0.00 0.00 87 1014.9
20260510055335 54 148 0.0 0.0 0.00 0.00 0.00 87 1014.9
20260510055110 54 148 0.0 0.0 0.00 0.00 0.00 87 1014.8
20260510054328 54 148 0.0 0.0 0.00 0.00 0.00 87 1014.8
20260510053827 55 148 0.0 0.0 0.00 0.00 0.00 86 1014.9
20260510053555 55 148 0.0 0.0 0.00 0.00 0.00 86 1014.9
20260510052828 55 148 0.0 0.0 0.00 0.00 0.00 85 1014.8
20260510052325 55 148 0.0 0.0 0.00 0.00 0.00 85 1014.7
20260510051826 55 148 0.0 0.0 0.00 0.00 0.00 85 1014.7
20260510051600 56 148 0.0 0.0 0.00 0.00 0.00 84 1014.7
20260510050827 56 148 0.0 0.0 0.00 0.00 0.00 83 1014.6
20260510050326 56 148 0.0 0.0 0.00 0.00 0.00 82 1014.7
20260510045826 56 148 0.0 0.0 0.00 0.00 0.00 82 1014.8
20260510045324 57 148 0.0 0.0 0.00 0.00 0.00 82 1014.9
20260510045054 57 148 0.0 0.0 0.00 0.00 0.00 82 1015.0
20260510044325 57 148 0.0 0.0 0.00 0.00 0.00 81 1015.0
20260510043826 58 148 0.0 0.0 0.00 0.00 0.00 80 1015.1
20260510043325 58 148 0.0 0.0 0.00 0.00 0.00 80 1015.0
20260510043044 59 148 0.0 0.0 0.00 0.00 0.00 79 1015.0
20260510042922 58 148 0.0 0.0 0.00 0.00 0.00 80 1015.0
20260510041825 59 148 0.0 0.0 0.00 0.00 0.00 78 1014.9
20260510041327 59 148 0.0 0.0 0.00 0.00 0.00 78 1015.0
20260510040826 60 148 0.0 0.0 0.00 0.00 0.00 77 1015.0
20260510040542 60 148 0.0 0.0 0.00 0.00 0.00 77 1015.1
20260510035812 60 148 0.0 0.0 0.00 0.00 0.00 76 1015.0
20260510035309 61 148 0.0 0.0 0.00 0.00 0.00 75 1014.9
20260510035025 61 148 0.0 0.0 0.00 0.00 0.00 75 1014.9
20260510034523 61 148 0.0 0.0 0.00 0.00 0.00 74 1015.1
20260510033748 62 148 0.0 0.0 0.00 0.00 0.00 74 1015.1
20260510033504 62 148 0.0 0.0 0.00 0.00 0.00 73 1015.1
20260510032739 62 148 0.0 0.0 0.00 0.00 0.00 72 1015.0
20260510032233 63 148 0.0 0.0 0.00 0.00 0.00 71 1015.0
20260510031728 63 148 0.0 0.0 0.00 0.00 0.00 71 1015.0
20260510031220 63 148 0.0 0.0 0.00 0.00 0.00 70 1014.9
20260510030940 64 148 0.0 0.0 0.00 0.00 0.00 69 1014.9
20260510030441 64 148 0.0 0.0 0.00 0.00 0.00 69 1014.9
20260510025702 65 148 0.0 0.0 0.00 0.00 0.00 68 1014.9
20260510025154 65 153 0.0 0.0 0.00 0.00 0.00 68 1014.9
20260510024650 65 153 0.0 0.0 0.00 0.00 0.00 66 1014.9
20260510024143 65 149 0.0 0.0 0.00 0.00 0.00 67 1014.9
20260510023903 65 123 0.0 1.0 0.00 0.00 0.00 64 1014.8
20260510023132 65 180 0.0 3.0 0.00 0.00 0.00 63 1015.0
20260510022621 65 184 0.0 3.0 0.00 0.00 0.00 63 1015.1
20260510022121 66 136 0.0 7.0 0.00 0.00 0.00 63 1015.1
20260510021613 66 184 0.0 7.0 0.00 0.00 0.00 63 1015.1
20260510021107 66 165 0.0 7.0 0.00 0.00 0.00 63 1015.1
20260510020601 66 309 0.0 7.0 0.00 0.00 0.00 62 1015.1
20260510020055 67 218 0.0 0.0 0.00 0.00 0.00 64 1015.1
20260510015552 67 135 0.0 0.0 0.00 0.00 0.00 63 1015.0
20260510015317 67 134 0.0 0.0 0.00 0.00 0.00 63 1015.0
20260510014537 67 134 0.0 0.0 0.00 0.00 0.00 61 1015.0
20260510014032 67 169 0.0 0.0 0.00 0.00 0.00 62 1015.1
20260510013524 67 132 0.0 0.0 0.00 0.00 0.00 61 1015.2
20260510013019 67 5 0.0 1.0 0.00 0.00 0.00 63 1015.3
20260510012514 68 29 0.0 1.0 0.00 0.00 0.00 62 1015.3
20260510012007 68 209 0.0 1.0 0.00 0.00 0.00 61 1015.3
20260510011503 68 152 0.0 1.0 0.00 0.00 0.00 62 1015.3
20260510010956 68 164 0.0 0.0 0.00 0.00 0.00 60 1015.5
20260510010711 68 316 0.0 0.0 0.00 0.00 0.00 60 1015.6
20260510005943 68 140 0.0 1.0 0.00 0.00 0.00 59 1015.5
20260510005440 68 146 0.0 4.0 0.00 0.00 0.00 60 1015.5
20260510004931 69 185 0.0 4.0 0.00 0.00 0.00 60 1015.6
20260510004654 69 142 0.0 0.0 0.00 0.00 0.00 59 1015.7
20260510004147 69 163 0.0 0.0 0.00 0.00 0.00 58 1015.6
20260510003415 69 129 0.0 0.0 0.00 0.00 0.00 60 1015.6
20260510002906 69 36 0.0 0.0 0.00 0.00 0.00 57 1015.6
20260510002400 69 194 0.0 0.0 0.00 0.00 0.00 59 1015.7
20260510001855 69 194 0.0 0.0 0.00 0.00 0.00 58 1015.8
20260510001349 69 103 0.0 0.0 0.00 0.00 0.00 56 1015.7
20260510000845 69 150 0.0 0.0 0.00 0.00 0.00 57 1015.8
20260510000338 69 159 0.0 0.0 0.00 0.00 0.00 55 1015.8
20260509235831 69 293 0.0 9.0 0.00 0.00 0.00 55 1015.9
20260509235553 69 22 0.0 9.0 0.00 0.00 0.00 54 1015.8
20260509234821 69 71 0.0 3.0 0.00 0.00 0.00 55 1015.9
20260509234313 70 111 0.0 3.0 0.00 0.00 0.00 54 1016.0
20260509233803 70 269 0.0 2.0 0.00 0.00 0.00 56 1016.1
20260509233300 70 194 0.0 0.0 0.00 0.00 0.00 54 1016.0
20260509233247 70 115 0.0 2.0 0.00 0.00 0.00 54 1016.0
20260509232300 70 111 0.0 5.0 0.00 0.00 0.00 53 1016.2
20260509231800 70 119 0.0 6.0 0.00 0.00 0.00 53 1016.2
20260509231258 70 146 0.0 7.0 0.00 0.00 0.00 58 1016.4
20260509230758 70 140 0.0 7.0 0.00 0.00 0.00 54 1016.4
20260509230259 70 192 0.0 0.0 0.00 0.00 0.00 53 1016.4
20260509230025 70 169 0.0 1.0 0.00 0.00 0.00 56 1016.4
20260509225254 70 71 0.0 1.0 0.00 0.00 0.00 56 1016.5
20260509224755 70 50 0.0 0.0 0.00 0.00 0.00 57 1016.5
20260509224253 70 350 0.0 0.0 0.00 0.00 0.00 52 1016.5
20260509223752 71 342 0.0 0.0 0.00 0.00 0.00 53 1016.5
20260509223250 71 292 0.0 0.0 0.00 0.00 0.00 52 1016.4
20260509222750 71 297 0.0 5.0 0.00 0.00 0.00 53 1016.5
20260509222745 71 126 0.0 5.0 0.00 0.00 0.00 53 1016.5
20260509221756 71 121 0.0 1.0 0.00 0.00 0.00 55 1016.5
20260509221253 71 122 0.0 0.0 0.00 0.00 0.00 55 1016.7
20260509220750 71 104 0.0 2.0 0.00 0.00 0.00 53 1016.7
20260509220519 71 169 0.0 2.0 0.00 0.00 0.00 53 1016.7
20260509215750 71 146 0.0 2.0 0.00 0.00 0.00 57 1016.8
20260509215250 70 138 0.0 2.0 0.00 0.00 0.00 56 1016.9
20260509214751 70 323 0.0 1.0 0.00 0.00 0.00 54 1016.9
20260509214247 71 355 0.0 1.0 0.00 0.00 0.00 52 1016.8
20260509213749 71 275 0.0 0.0 0.00 0.00 0.00 54 1016.8
20260509213244 71 317 0.0 0.0 0.00 0.00 0.00 52 1016.9
20260509212746 71 205 0.0 0.0 0.00 0.00 0.00 52 1016.9
20260509212247 71 287 0.0 0.0 0.00 0.00 0.00 52 1016.9
20260509211743 71 169 0.0 0.0 0.00 0.00 0.00 56 1016.8
20260509211503 71 74 0.0 0.0 0.00 0.00 0.00 53 1016.9
20260509210741 71 112 0.0 0.0 0.00 0.00 0.00 54 1017.0
20260509210238 71 298 0.0 1.0 0.00 0.00 0.00 57 1017.0
20260509205737 70 168 0.0 3.0 0.00 0.00 0.00 56 1017.0
20260509205235 70 0 0.0 3.0 0.00 0.00 0.00 55 1017.1
20260509204735 70 309 0.0 0.0 0.00 0.00 0.00 56 1017.2
20260509204235 70 153 0.0 3.0 0.00 0.00 0.00 55 1017.3
20260509203734 69 149 0.0 3.0 0.00 0.00 0.00 55 1017.4
20260509203231 69 167 0.0 3.0 0.00 0.00 0.00 57 1017.5
20260509202733 69 45 0.0 1.0 0.00 0.00 0.00 54 1017.6
20260509202239 69 300 0.0 2.0 0.00 0.00 0.00 54 1017.7
20260509201735 69 281 0.0 2.0 0.00 0.00 0.00 56 1017.8
20260509201228 69 202 0.0 0.0 0.00 0.00 0.00 58 1017.8
20260509200724 69 159 0.0 1.0 0.00 0.00 0.00 58 1018.0
20260509200216 69 138 0.0 1.0 0.00 0.00 0.00 55 1018.1
20260509195710 69 298 0.0 0.0 0.00 0.00 0.00 58 1018.3
20260509195204 69 313 0.0 0.0 0.00 0.00 0.00 57 1018.4
20260509194701 68 355 0.0 6.0 0.00 0.00 0.00 61 1018.4
20260509194153 68 330 0.0 6.0 0.00 0.00 0.00 57 1018.3
20260509193646 68 273 0.0 1.0 0.00 0.00 0.00 55 1018.3
20260509193140 68 125 0.0 2.0 0.00 0.00 0.00 59 1018.4
20260509192636 68 164 0.0 2.0 0.00 0.00 0.00 57 1018.4
20260509192129 68 134 0.0 6.0 0.00 0.00 0.00 61 1018.4
20260509191622 68 163 0.0 6.0 0.00 0.00 0.00 60 1018.5
20260509191116 67 103 0.0 0.0 0.00 0.00 0.00 55 1018.5
20260509190613 67 312 0.0 0.0 0.00 0.00 0.00 59 1018.6
20260509190105 67 305 0.0 1.0 0.00 0.00 0.00 57 1018.6
20260509185555 67 153 0.0 1.0 0.00 0.00 0.00 55 1018.7
20260509185322 67 135 0.0 0.0 0.00 0.00 0.00 57 1018.9
20260509184548 67 319 0.0 0.0 0.00 0.00 0.00 58 1018.9
20260509184259 67 289 0.0 0.0 0.00 0.00 0.00 61 1019.0
20260509183535 66 84 0.0 0.0 0.00 0.00 0.00 56 1019.0
20260509183028 66 309 0.0 0.0 0.00 0.00 0.00 63 1019.1